Home   Weather   Havana   Past weeks
Flag for Cuba

Past Weather in Havana, Cuba — Yesterday and Last 2 Weeks

Now
79 °F

Thunderstorms. Partly sunny.


Feels Like: 82 °F
Forecast: N/A
Wind: 8 mph from North

Location: Aeropuerto Jose Marti - Rancho-Boyeros - Habana

Current Time: Jun 20, 2019 at 5:38:15 pm

Latest Report: Jun 20, 2019 at 4:55 pm


Visibility: 4 mi

Pressure: 30.01 "Hg

Humidity: 89%

Dew Point: 75 °F

Location of HavanaLocation

Past Weather in Havana — Graph

°F

Havana Temperature Yesterday

Maximum temperature yesterday: 91 °F (at 12:55 pm)
Minimum temperature yesterday: 73 °F (at 12:55 am)
Average temperature yesterday: 83 °F

High & Low Weather Summary for the Past Weeks

 TemperatureHumidityPressure
High91 °F (Jun 5, 3:55 pm)100% (Jun 5, 5:35 pm)30.09 "Hg (Jun 5, 5:35 pm)
Low72 °F (Jun 11, 6:55 am)52% (Jun 12, 3:55 pm)29.86 "Hg (Jun 7, 4:55 pm)
Average81 °F82%30.00 "Hg
* Reported Jun 5 3:55 pm — Jun 20 3:55 pm, Havana. Weather by CustomWeather, © 2019

Note: Actual official high and low records may vary slightly from our data, if they occured in-between our weather recording intervals... More about our weather records

Advertising

Havana Weather History for the Previous 24 Hours

Scroll right to see more
 ConditionsComfort  
Time TempWeatherWind HumidityBarometerVisibility
3:55 pm
Thu, Jun 20
91 °FPartly sunny.12 mph67%30.01 "Hg6 mi
2:55 pm91 °FPartly sunny.10 mph67%30.04 "Hg6 mi
1:55 pm91 °FPartly sunny.2 mph63%30.04 "Hg6 mi
12:55 pm90 °FPartly sunny.9 mph67%30.04 "Hg6 mi
11:55 am90 °FScattered clouds.3 mph67%30.07 "Hg6 mi
10:55 am90 °FPassing clouds.5 mph67%30.07 "Hg6 mi
9:55 am86 °FPassing clouds.3 mph75%30.07 "Hg6 mi
8:55 am82 °FPassing clouds.2 mph84%30.04 "Hg6 mi
7:55 am77 °FSunny.1 mph94%30.04 "Hg6 mi
6:55 am75 °FClear.3 mph94%30.01 "Hg6 mi
5:55 am75 °FClear.2 mph100%30.01 "Hg4 mi
4:55 am75 °FClear.1 mph100%29.98 "Hg4 mi
3:55 am75 °FPassing clouds.1 mph100%30.01 "Hg6 mi
2:55 am77 °FPassing clouds.No wind94%30.01 "Hg6 mi
1:55 am75 °FClear.2 mph100%30.04 "Hg6 mi
12:55 am77 °FPassing clouds.No wind94%30.04 "Hg6 mi
11:55 pm
Wed, Jun 19
79 °FClear.No wind94%30.04 "Hg6 mi
10:55 pm81 °FClear.3 mph94%30.04 "Hg6 mi
9:55 pm81 °FPassing clouds.2 mph89%30.01 "Hg6 mi
8:55 pm82 °FPassing clouds.2 mph84%30.01 "Hg6 mi
7:55 pm86 °FPartly sunny.3 mph75%30.01 "Hg6 mi
6:55 pm90 °FScattered clouds.5 mph63%29.98 "Hg6 mi
5:55 pm90 °FScattered clouds.6 mph67%29.98 "Hg6 mi
Weather by CustomWeather, © 2019

See weather overview